Location: Unspecified
(0.0000°N, 0.0000°E)
Time: 16:24:27
(UTC+00:00)

A-11 Canister half - Pass Details

Date: 24 November 2019
Orbit: 1526 x 1683 km, 47.3° (Epoch: 12 December)

Event Time Altitude Azimuth Distance (km) Brightness Sun altitude
Rises 08:28:36 0° 239° (WSW) 4,908 11.4 37.5°
Reaches altitude 10° 08:32:04 10° 247° (WSW) 3,930 10.9 38.2°
Maximum altitude 08:41:06 37° 310° (NW) 2,398 10.0 40.3°
Drops below altitude 10° 08:50:10 10° 15° (NNE) 3,919 11.1 42.3°
Sets 08:53:40 0° 23° (NNE) 4,893 11.6 43.0°
